Regional Weather Roundup
Issued by NWS

Home | Current Version | Previous Version | Graphics & Text | Print | Product List | Glossary On
Versions: 1 2 3 4 5 6 7 8 9 10 11 12 13 14 15 16 17 18 19 20 21 22 23 24 25 26 27 28 29 30 31 32 33 34 35 36 37 38 39 40 41 42 43 44 45 46 47 48 49 50
000
ASUS43 KMPX 200801
RWRMN
WEATHER ROUNDUP FOR MINNESOTA
NATIONAL WEATHER SERVICE TWIN CITIES/CHANHASSEN MN
300 AM CDT WED AUG 20 2014


NOTE: "FAIR" INDICATES FEW OR NO CLOUDS BELOW 12,000 FEET WITH NO
SIGNIFICANT WEATHER AND/OR OBSTRUCTIONS TO VISIBILITY. N/A MEANS
CURRENT SKY AND/OR WEATHER CONDITIONS ARE NOT AVAILABLE.

MNZ060>063-068>070-200900-
   Twin Cities Metro

CITY           SKY/WX    TMP DP  RH WIND       PRES   REMARKS
TWIN CITIES    PTCLDY    68  65  90 CALM      29.81R
ST PAUL        CLEAR     65  65 100 CALM      29.80S FOG
CRYSTAL        CLEAR     64  62  93 CALM      29.80R FOG
BLAINE         PTCLDY    63  63 100 CALM      29.81S FOG
LAKEVILLE      CLEAR     61  61 100 CALM      29.81S FOG
EDEN PRAIRIE   CLEAR     65  64  97 CALM      29.80R
SOUTH ST PAUL  CLEAR     66  64  93 CALM      29.80S
LAKE ELMO      FAIR      61  61 100 CALM      29.82S
$$
MNZ001>005-007-008-013>017-022>024-027-028-200900-
   Northwest Minnesota

CITY           SKY/WX    TMP DP  RH WIND       PRES   REMARKS
BEMIDJI        CLEAR     60  59  99 CALM      29.82F
HALLOCK        PTCLDY    66  63  88 SE8       29.76S
ROSEAU         CLEAR     64  57  77 SE3       29.80S
WARROAD        PTCLDY    63  57  82 CALM      29.82S
THIEF RVR FALL CLEAR     61  59  94 E7        29.80S
CROOKSTON      CLEAR     61  59  94 SE6       29.78S
FOSSTON        CLEAR     59  55  88 CALM      29.81F
DETROIT LAKES  CLEAR     64  63  94 SE5       29.82F
MOORHEAD       PTCLDY    66  66 100 SE5       29.78F
PARK RAPIDS    CLEAR     61  60  97 E5        29.82F
MAHNOMEN       FAIR      62  60  94 SE5       29.80S
$$
MNZ006-009>011-018-025>026-200900-
   North Central Minnesota

CITY           SKY/WX    TMP DP  RH WIND       PRES   REMARKS
BAUDETTE       CLEAR     60  58  92 E5        29.82S
FLAG ISLAND    CLEAR     68  63  83 SE6       29.80S
INTL FALLS     CLEAR     49  48  97 CALM      29.83S
WASKISH        CLEAR     55  55 100 CALM      29.83R FOG
BIG FORK       CLOUDY    50  48  93 CALM      29.84F FOG
LONGVILLE      PTCLDY    55  55 100 CALM      29.83S
GRAND RAPIDS   CLOUDY    54  52  94 CALM      29.84R VSB 3/4
CRANE LAKE     FOG       48  48 100 CALM      29.86S VSB 1/2
ORR            CLEAR     54  52  94 CALM      29.82S
COOK           FOG       52  52 100 CALM      29.84F VSB 3/4
WALKER         FAIR      59  59  99 CALM      29.83R
$$
MNZ012-019>021-037-200900-
   Northeast Minnesota

CITY           SKY/WX    TMP DP  RH WIND       PRES   REMARKS
DULUTH         FOG       60  58  92 E8        29.83S VSB 1/4
ELY            CLOUDY    61  59  94 CALM      29.85R
HIBBING        PTCLDY    54  52  93 CALM      29.84R FOG
EVELETH        CLOUDY    57  55  94 CALM      29.85S
DULUTH HARBOR  CLOUDY    63  61  94 NE12      29.83S
TWO HARBORS    CLOUDY    57  54  88 CALM      29.82S
SILVER BAY     PTCLDY    57  57 100 CALM      29.82S
GRAND MARAIS     N/A     60  58  92 CALM      29.81R
G MARAIS ARPRT CLOUDY    57  54  88 N6        29.84S
$$
MNZ029>031-032-039>041-046>048-054>057-064-200900-
   West Central Minnesota

CITY           SKY/WX    TMP DP  RH WIND       PRES   REMARKS
FERGUS FALLS   CLEAR     66  63  88 E3        29.79S
WHEATON        PTCLDY    61  59  94 SE5       29.79F
MORRIS         CLEAR     64  63  94 E6        29.78F FOG
ALEXANDRIA     CLEAR     64  61  90 SE5       29.82F
ELBOW LAKE     FAIR      66  62  86 E6        29.79F
WADENA           N/A     57  57 100 CALM      29.82R FOG
GLENWOOD       CLEAR     63  61  94 E3        29.82F FOG
APPLETON       CLEAR     63  61  94 CALM      29.78F
BENSON         CLEAR     63  61  94 SE3       29.79F FOG
ORTONVILLE     PTCLDY    64  63  94 CALM      29.78F
MADISON        PTCLDY    66  64  94 CALM      29.79S FOG
WILLMAR        FAIR      63  61  94 CALM      29.81F
$$
MNZ033>034-036-042>043-049>051-058-059-200900-
   Central Minnesota

CITY           SKY/WX    TMP DP  RH WIND       PRES   REMARKS
ST CLOUD       FOG       62  60  93 CALM      29.81S VSB 1/2
SAUK CENTRE    FAIR      58  58  98 CALM      29.82S
PAYNESVILLE    FOG       57  57 100 CALM      29.81F VSB 1/2
AITKIN         HAZE      57  52  82 CALM      29.82S VSB 1/2
PINE RIVER     FOG       57  57 100 CALM      29.87R VSB 3/4
BRAINERD       FOG       59  59 100 CALM      29.83S VSB 3/4
STAPLES        CLEAR     61  59  94 CALM      29.82S
LONG PRAIRIE   FAIR      59  59 100 CALM      29.82S FOG
LITTLE FALLS   CLEAR     59  59 100 CALM      29.82S
LITCHFIELD     CLEAR     64  64 100 CALM      29.81F
BUFFALO        CLEAR     62  59  90 CALM      29.82S
MAPLE LAKE     FOG       61  61  99 CALM      29.82S VSB 3/4
$$
MNZ037-044-045-052-053-200900-
   East Central Minnesota

CITY           SKY/WX    TMP DP  RH WIND       PRES   REMARKS
PRINCETON      CLEAR     63  63 100 NE3       29.82S
MORA           CLEAR     57  55  94 CALM      29.85R
CAMBRIDGE      PTCLDY    63  54  72 CALM      29.80S
RUSH CITY      PTCLDY    59  58  96 CALM      29.83R FOG
MOOSE LAKE     FOG       55  55 100 CALM      29.82R VSB 1/4
HINCKLEY       CLOUDY    55  55 100 CALM      29.83R
CLOQUET        CLOUDY    61  57  88 CALM      29.83S
MCGREGOR       CLOUDY    57  55  94 CALM      29.84R VSB 1
$$
MNZ071>073-080-081-089-090-097-098-200900-
   Southwest Minnesota

CITY           SKY/WX    TMP DP  RH WIND       PRES   REMARKS
MONTEVIDEO     CLEAR     66  64  94 S3        29.79F
GRANITE FALLS  CLEAR     63  62  98 CALM      29.81S
CANBY          CLEAR     66  64  91 S3        29.80S
MARSHALL       CLEAR     64  61  88 S3        29.79S
REDWOOD FALLS  PTCLDY    65  63  93 CALM      29.79F
OLIVIA         CLEAR     63  59  88 CALM      29.79F
PIPESTONE      PTCLDY    64  61  88 E3        29.82S
WINDOM           N/A     63  61  94 CALM      29.82S FOG
WORTHINGTON    CLEAR     61   7  11 CALM      29.83S
JACKSON        PTCLDY    63  61  94 CALM      29.83F
TRACY          CLEAR     67  64  88 CALM      29.81F
SLAYTON        CLEAR     63  62  96 CALM      29.83S
$$
MNZ065>067-074>077-082>085-091>093-200900-
   South Central Minnesota

CITY           SKY/WX    TMP DP  RH WIND       PRES   REMARKS
MANKATO        CLEAR     64  61  88 SW3       29.81S
NEW ULM        CLEAR     63  63 100 CALM      29.80F
ST JAMES       PTCLDY    63  61  94 CALM      29.81F
FAIRMONT       CLEAR     64  48  55 CALM      29.81F
GLENCOE        CLEAR     62  59  88 CALM      29.80S
FARIBAULT      HAZE      63  57  82 CALM      29.82S VSB 1/2
OWATONNA         N/A     61  59  94 CALM      29.82S FOG
WASECA         FOG       59  54  82 CALM      29.84S VSB 1/2
ALBERT LEA     FOG       64  64 100 CALM      29.82F VSB 1/4
$$
MNZ078>079-086>088-094>096-200900-
   Southeast Minnesota

CITY           SKY/WX    TMP DP  RH WIND       PRES   REMARKS
ROCHESTER      PTCLDY    64  62  93 W5        29.84R
RED WING       CLEAR     63  61  94 CALM      29.80R
STANTON        CLEAR     64  62  93 CALM      29.80S
DODGE CENTER   CLEAR     63  61  94 SW5       29.83R FOG
WINONA         PTCLDY    63  63 100 CALM      29.81R
AUSTIN         FOG       64  63  94 CALM      29.83R VSB 3/4
PRESTON        CLEAR     64  64 100 SW6       29.84R
$$
ABBREVIATIONS USED IN REMARKS
   TC - TEMPERATURES IN CELSIUS
  WCI - WIND CHILL INDEX
   HX - HEAT INDEX
  VSB - VISIBILITY
$$



USA.gov is the U.S. government's official web portal to all federal, state and local government web resources and services.